Jefferson, NC

3:03 AM EST on December 16, 2019 (GMT -0500)
Ashe County

Weather History for KGEV - August, 2019

Change the Weather History Date:

Wednesday, August 14, 2019

  Actual Average Record
Temperature  
Mean Temperature 74 °F -  
Max Temperature 79 °F 78 °F 87 °F (1980)
Min Temperature 68 °F 56 °F 41 °F (1967)
Cooling Degree Days 8    
Growing Degree Days 24 (Base 50)    
Moisture  
Dew Point 64 °F    
Average Humidity 75    
Maximum Humidity 90    
Minimum Humidity 55    
Precipitation  
Precipitation 0.00 in - - ()
Sea Level Pressure  
Sea Level Pressure 30.03 in    
Wind  
Wind Speed 6 mph ()    
Max Wind Speed 14 mph    
Max Gust Speed 22 mph    
Visibility 10.0 miles    
Events      
Averages and records for this station are not official NWS values.
T = Trace of Precipitation, MM = Missing Value Source: Averaged Metar Reports

Daily Weather History Graph

Daily Weather History Graph

Search for Another Location

Airport or City:

Astronomy

Aug. 14, 2019 Rise Set
Actual Time 6:42 AM EDT 8:17 PM EDT
Civil Twilight 6:14 AM EDT 8:45 PM EDT
Nautical Twilight 5:41 AM EDT 9:18 PM EDT
Astronomical Twilight 5:06 AM EDT 9:52 PM EDT
Moon 8:08 PM EDT (8/14) 5:41 AM EDT (8/14)
Length of Visible Light 14h 30m
Length of Day
13h 35m
Waxing Gibbous, 99% of the Moon is Illuminated
Aug 14
Waxing Gibbous
Aug 15
Full
Aug 23
Last Quarter
Aug 30
New
Sep 5
First Quarter

Hourly Weather History & Observations

Time (EDT) Temp. Dew Point Humidity Pressure Visibility Wind Dir Wind Speed Gust Speed Precip Events Conditions
12:15 AM 69.3 °F 65.3 °F 87% 30.02 in 10.0 mi West 3.5 mph - N/A   Clear
12:35 AM 69.3 °F 64.8 °F 86% 30.02 in 10.0 mi West 4.6 mph - N/A   Clear
12:55 AM 68.0 °F 65.1 °F 90% 30.02 in 10.0 mi West 4.6 mph - N/A   Clear
1:15 AM 69.1 °F 65.3 °F 88% 30.02 in 10.0 mi West 4.6 mph - N/A   Clear
1:35 AM 70.7 °F 64.4 °F 80% 30.01 in 10.0 mi West 4.6 mph - N/A   Clear
1:55 AM 70.2 °F 64.0 °F 81% 30.01 in 10.0 mi NW 6.9 mph - N/A   Clear
2:15 AM 69.8 °F 64.2 °F 82% 30.01 in 10.0 mi NW 4.6 mph - N/A   Clear
2:35 AM 70.5 °F 64.6 °F 81% 30.01 in 10.0 mi West 12.7 mph 20.7 mph N/A   Clear
2:55 AM 70.2 °F 65.3 °F 85% 30.01 in 10.0 mi West 13.8 mph 19.6 mph N/A   Clear
3:15 AM 69.8 °F 65.3 °F 86% 30.02 in 10.0 mi WSW 4.6 mph - N/A   Scattered Clouds
3:35 AM 69.8 °F 65.7 °F 87% 30.02 in 10.0 mi WSW 5.8 mph - N/A   Mostly Cloudy
3:55 AM 69.3 °F 65.5 °F 88% 30.01 in 10.0 mi WSW 8.1 mph - N/A   Mostly Cloudy
4:15 AM 69.3 °F 65.5 °F 88% 30.00 in 10.0 mi West 8.1 mph - N/A   Mostly Cloudy
4:35 AM 69.1 °F 65.3 °F 88% 30.01 in 10.0 mi West 8.1 mph - N/A   Mostly Cloudy
4:55 AM 69.8 °F 65.3 °F 86% 30.01 in 10.0 mi Calm Calm - N/A   Scattered Clouds
5:15 AM 69.3 °F 65.8 °F 89% 30.01 in 10.0 mi West 11.5 mph - N/A   Scattered Clouds
5:35 AM 69.3 °F 66.0 °F 89% 30.02 in 10.0 mi WNW 4.6 mph - N/A   Mostly Cloudy
5:55 AM 69.1 °F 66.0 °F 90% 30.02 in 10.0 mi NW 6.9 mph - N/A   Overcast
6:15 AM 69.3 °F 65.5 °F 88% 30.03 in 10.0 mi West 9.2 mph 17.3 mph N/A   Overcast
6:55 AM 68.5 °F 65.7 °F 90% 30.04 in 10.0 mi West 9.2 mph - N/A   Overcast
7:15 AM 68.9 °F 65.3 °F 88% 30.04 in 10.0 mi WNW 9.2 mph - N/A   Overcast
7:35 AM 68.9 °F 65.3 °F 88% 30.04 in 10.0 mi WNW 6.9 mph - N/A   Mostly Cloudy
7:55 AM 69.4 °F 64.9 °F 86% 30.04 in 10.0 mi Calm Calm - N/A   Mostly Cloudy
8:15 AM 69.6 °F 65.3 °F 86% 30.04 in 10.0 mi West 4.6 mph - N/A   Overcast
8:35 AM 69.8 °F 64.9 °F 84% 30.03 in 10.0 mi West 4.6 mph - N/A   Overcast
8:55 AM 69.8 °F 65.1 °F 85% 30.03 in 10.0 mi West 8.1 mph - N/A   Overcast
9:15 AM 71.2 °F 65.7 °F 82% 30.03 in 10.0 mi Calm Calm - N/A   Overcast
9:35 AM 71.6 °F 65.1 °F 80% 30.03 in 10.0 mi West 4.6 mph - N/A   Overcast
9:55 AM 72.3 °F 65.1 °F 78% 30.04 in 10.0 mi WNW 10.4 mph - N/A   Overcast
10:15 AM 72.9 °F 64.8 °F 76% 30.04 in 10.0 mi NW 5.8 mph - N/A   Overcast
10:35 AM 73.6 °F 64.6 °F 73% 30.04 in 10.0 mi NNW 8.1 mph 19.6 mph N/A   Mostly Cloudy
10:55 AM 73.8 °F 64.4 °F 72% 30.04 in 10.0 mi NW 9.2 mph 21.9 mph N/A   Mostly Cloudy
11:15 AM 74.7 °F 64.0 °F 69% 30.04 in 10.0 mi NNW 11.5 mph 18.4 mph N/A   Scattered Clouds
11:35 AM 74.1 °F 64.6 °F 72% 30.03 in 10.0 mi NNW 8.1 mph - N/A   Mostly Cloudy
11:55 AM 75.7 °F 64.8 °F 69% 30.03 in 10.0 mi NNW 6.9 mph - N/A   Mostly Cloudy
12:15 PM 75.7 °F 63.9 °F 66% 30.04 in 10.0 mi NNW 5.8 mph 16.1 mph N/A   Mostly Cloudy
12:35 PM 75.7 °F 63.3 °F 65% 30.04 in 10.0 mi NW 6.9 mph 17.3 mph N/A   Mostly Cloudy
12:55 PM 75.7 °F 62.1 °F 62% 30.04 in 10.0 mi WNW 8.1 mph - N/A   Overcast
1:15 PM 76.3 °F 62.6 °F 62% 30.06 in 10.0 mi WNW 4.6 mph - N/A   Overcast
1:55 PM 78.3 °F 61.2 °F 56% 30.06 in 10.0 mi Calm Calm - N/A   Overcast
2:15 PM 78.8 °F 61.2 °F 55% 30.05 in 10.0 mi West 9.2 mph - N/A   Overcast
2:35 PM 79.2 °F 62.6 °F 57% 30.05 in 10.0 mi West 10.4 mph - N/A   Overcast
2:55 PM 78.8 °F 61.7 °F 56% 30.05 in 10.0 mi West 9.2 mph - N/A   Mostly Cloudy
3:15 PM 79.0 °F 61.9 °F 56% 30.04 in 10.0 mi West 9.2 mph - N/A   Mostly Cloudy
3:35 PM 79.0 °F 61.9 °F 56% 30.03 in 10.0 mi West 4.6 mph - N/A   Mostly Cloudy
3:55 PM 77.0 °F 63.3 °F 63% 30.03 in 10.0 mi NNW 9.2 mph - N/A   Overcast
4:15 PM 76.1 °F 63.0 °F 64% 30.03 in 10.0 mi NNW 9.2 mph - N/A   Mostly Cloudy
4:35 PM 75.6 °F 63.0 °F 65% 30.03 in 10.0 mi NNW 5.8 mph - N/A   Mostly Cloudy
4:55 PM 75.6 °F 62.8 °F 64% 30.02 in 10.0 mi NNW 3.5 mph - N/A   Overcast
5:15 PM 76.5 °F 62.2 °F 61% 30.02 in 10.0 mi NNW 4.6 mph - N/A   Mostly Cloudy
5:35 PM 76.6 °F 62.6 °F 62% 30.01 in 10.0 mi Calm Calm - N/A   Overcast
5:55 PM 76.5 °F 61.9 °F 61% 30.01 in 10.0 mi NNW 4.6 mph - N/A   Mostly Cloudy
6:15 PM 76.3 °F 62.8 °F 63% 30.01 in 10.0 mi NNW 4.6 mph - N/A   Mostly Cloudy
6:35 PM 76.1 °F 63.0 °F 64% 30.01 in 10.0 mi NNW 8.1 mph - N/A   Overcast
6:55 PM 75.7 °F 62.8 °F 64% 30.02 in 10.0 mi NNW 6.9 mph - N/A   Overcast
7:15 PM 75.6 °F 63.0 °F 65% 30.02 in 10.0 mi NNW 6.9 mph - N/A   Overcast
7:35 PM 75.2 °F 63.3 °F 66% 30.03 in 10.0 mi NNW 4.6 mph - N/A   Overcast
7:55 PM 74.5 °F 63.9 °F 69% 30.03 in 10.0 mi NNW 6.9 mph - N/A   Overcast
8:15 PM 74.3 °F 64.4 °F 71% 30.03 in 10.0 mi NNW 5.8 mph - N/A   Overcast
8:35 PM 73.6 °F 64.0 °F 72% 30.04 in 10.0 mi NNW 4.6 mph - N/A   Scattered Clouds
8:55 PM 73.4 °F 63.5 °F 71% 30.05 in 10.0 mi Calm Calm - N/A   Clear
9:15 PM 72.5 °F 64.4 °F 76% 30.06 in 10.0 mi NNW 4.6 mph - N/A   Clear
9:35 PM 71.6 °F 64.9 °F 79% 30.06 in 10.0 mi NNW 5.8 mph - N/A   Clear
9:55 PM 71.1 °F 64.6 °F 80% 30.06 in 10.0 mi Calm Calm - N/A   Clear
10:15 PM 71.1 °F 63.7 °F 77% 30.06 in 10.0 mi NNW 3.5 mph - N/A   Clear
10:35 PM 70.5 °F 63.3 °F 78% 30.07 in 10.0 mi Calm Calm - N/A   Clear
10:55 PM 70.0 °F 64.0 °F 81% 30.08 in 10.0 mi Calm Calm - N/A   Clear
11:35 PM 69.6 °F 64.4 °F 83% 30.09 in 10.0 mi NNW 3.5 mph - N/A   Clear
11:55 PM 69.6 °F 64.4 °F 83% 30.09 in 10.0 mi NNW 4.6 mph - N/A   Scattered Clouds